Date_and_time,latitude,longitude,wind_speed,RelWindDirFrom,WindDirFrom,air_pressure,air_temperature,relative_humidity,Temp,platform_speed_wrt_ground,air_pressure_at_mean_sea_level,platform_orientation
2019-01-24 23:50,50.63044,-96.98077,4.9,5.8,124,994.47,-25.5,68,0.30,0.0,1025.29,167.4
2019-01-25 00:00,50.6304416666667,-96.980765,2.7,4.5,162,994.52,-26.4,68,0.30,0.0,1025.39,167.4
2019-01-25 00:00,50.6304433333333,-96.980765,2.6,2.6,164,994.52,-26.6,69,0.30,0.0,1025.41,0.0
2019-01-25 00:10,50.6304433333333,-96.980765,3.8,4.8,168,994.54,-26.6,68,0.30,0.0,1025.43,0.0
2019-01-25 00:20,50.630455,-96.9807966666667,3.7,4.7,159,994.40,-26.5,69,0.30,0.0,1025.29,0.0
2019-01-25 00:30,50.6304516666667,-96.9807766666667,2.9,4.0,158,994.29,-26.5,70,0.30,0.0,1025.19,0.0
2019-01-25 00:40,50.63045,-96.9807733333333,3.9,5.3,157,994.05,-26.5,70,0.31,0.0,1024.96,0.0
2019-01-25 00:50,50.6304516666667,-96.9807666666667,4.1,5.1,150,993.85,-26.3,69,0.31,0.0,1024.76,0.0
2019-01-25 01:00,50.6304516666667,-96.9807683333333,3.8,5.2,146,993.63,-26.3,69,0.32,0.0,1024.58,360.0
2019-01-25 01:10,50.6304533333333,-96.9807683333333,5.0,7.2,129,993.37,-25.7,70,0.32,0.0,1024.29,360.0
2019-01-25 01:20,50.6304533333333,-96.9807683333333,5.8,7.3,142,993.34,-26.1,71,0.32,0.0,1024.30,360.0
2019-01-25 01:30,50.6304516666667,-96.9807666666667,6.4,7.6,142,993.20,-26.1,72,0.32,0.0,1024.18,360.0
2019-01-25 01:40,50.63046,-96.9807666666667,6.9,8.3,143,993.17,-26.0,72,0.32,0.0,1024.20,360.0
2019-01-25 01:50,50.630455,-96.9807616666667,6.9,8.1,146,993.21,-25.9,71,0.32,0.0,1024.24,360.0
2019-01-25 02:00,50.6304583333333,-96.980765,6.5,7.4,146,993.16,-25.7,71,0.33,0.0,1024.18,360.0
2019-01-25 02:10,50.630455,-96.9807633333333,6.0,7.8,141,993.14,-25.5,71,0.33,0.0,1024.15,360.0
2019-01-25 02:20,50.630445,-96.9807683333333,4.7,6.2,148,993.18,-25.3,70,0.33,0.0,1024.17,360.0
2019-01-25 02:30,50.63045,-96.9807716666667,3.3,4.4,170,993.20,-25.2,67,0.33,0.0,1024.18,360.0
2019-01-25 02:40,50.6304483333333,-96.9807716666667,2.0,3.3,191,993.21,-25.2,65,0.32,0.0,1024.18,360.0
2019-01-25 02:50,50.6304483333333,-96.9807733333333,1.1,2.5,216,993.22,-25.1,65,0.33,0.0,1024.19,360.0
2019-01-25 03:00,50.63045,-96.9807766666667,1.3,2.4,219,993.25,-25.1,66,0.33,0.0,1024.18,360.0
2019-01-25 03:10,50.6304516666667,-96.9807766666667,1.4,3.0,222,993.34,-25.1,68,0.33,0.0,1024.29,360.0
2019-01-25 03:20,50.6304516666667,-96.980775,1.9,2.7,221,993.36,-25.2,69,0.33,0.0,1024.32,360.0
2019-01-25 03:30,50.6304516666667,-96.9807733333333,1.7,2.5,220,993.37,-25.3,70,0.32,0.0,1024.33,360.0
2019-01-25 03:40,50.6304516666667,-96.9807733333333,2.3,3.3,217,993.27,-25.3,71,0.32,0.0,1024.23,360.0
2019-01-25 03:50,50.6304533333333,-96.9807716666667,1.8,2.6,224,993.23,-25.4,71,0.32,0.0,1024.18,360.0
2019-01-25 04:00,50.6304533333333,-96.9807716666667,1.3,2.4,230,993.07,-25.4,72,0.32,0.0,1024.01,270.0
2019-01-25 04:10,50.630455,-96.9807566666667,1.2,2.1,223,992.95,-25.5,72,0.32,0.0,1023.86,270.0
2019-01-25 04:20,50.630445,-96.980745,1.6,2.5,206,992.80,-25.5,73,0.32,0.0,1023.71,270.0
2019-01-25 04:30,50.6304483333333,-96.9807683333333,1.8,2.3,202,992.61,-25.6,73,0.32,0.0,1023.51,270.0
2019-01-25 04:40,50.63045,-96.98077,0.4,1.7,203,992.56,-25.6,74,0.32,0.0,1023.46,270.0
2019-01-25 04:50,50.63045,-96.9807666666667,0.5,1.3,226,992.52,-25.4,74,0.32,0.0,1023.41,270.0
2019-01-25 05:00,50.6304483333333,-96.980765,0.0,0.0,0,992.39,-25.1,74,0.32,0.0,1023.26,360.0
2019-01-25 05:10,50.63045,-96.9807666666667,0.0,0.0,0,992.30,-25.0,74,0.32,0.0,1023.16,360.0
2019-01-25 05:20,50.63045,-96.9807666666667,1.1,2.6,3,992.29,-25.0,74,0.31,0.0,1023.15,360.0
2019-01-25 05:30,50.6304516666667,-96.9807666666667,2.0,2.6,24,992.30,-25.0,75,0.31,0.0,1023.18,360.0
2019-01-25 05:40,50.6304516666667,-96.9807683333333,2.1,2.5,11,992.31,-25.3,75,0.32,0.0,1023.20,360.0
2019-01-25 05:50,50.6304533333333,-96.98077,2.0,2.6,10,992.30,-25.7,75,0.32,0.0,1023.21,360.0
2019-01-25 06:00,50.63046,-96.9807666666667,2.2,2.7,12,992.17,-25.7,75,0.31,0.0,1023.09,48.3
2019-01-25 06:10,50.6304566666667,-96.9807666666667,2.8,3.7,15,992.16,-25.7,76,0.31,0.0,1023.08,48.3
2019-01-25 06:20,50.6304566666667,-96.9807633333333,2.9,3.5,12,992.12,-25.8,76,0.31,0.0,1023.05,48.3
2019-01-25 06:30,50.6304566666667,-96.980765,3.6,4.0,9,992.05,-26.0,76,0.31,0.0,1022.99,48.3
2019-01-25 06:40,50.6304533333333,-96.980765,4.1,4.6,9,992.02,-26.3,75,0.31,0.0,1022.96,48.3
2019-01-25 06:50,50.6304516666667,-96.9807716666667,4.8,5.4,6,992.03,-26.8,75,0.31,0.0,1022.99,48.3
2019-01-25 07:00,50.6304516666667,-96.9807733333333,4.7,5.3,4,992.06,-27.1,75,0.31,0.0,1023.03,90.0
2019-01-25 07:10,50.6304516666667,-96.9807683333333,4.3,5.0,6,992.08,-27.2,75,0.31,0.0,1023.06,90.0
2019-01-25 07:20,50.63045,-96.98077,4.0,4.7,2,992.08,-27.2,75,0.31,0.0,1023.07,90.0
2019-01-25 07:30,50.630455,-96.9807716666667,4.1,4.6,4,992.21,-27.3,75,0.31,0.0,1023.22,90.0
2019-01-25 07:40,50.630455,-96.9807716666667,3.7,4.2,350,992.34,-27.1,75,0.31,0.0,1023.37,90.0
2019-01-25 07:50,50.630425,-96.980745,3.7,4.8,354,992.39,-26.8,75,0.31,0.0,1023.39,90.0
2019-01-25 08:00,50.63044,-96.980785,3.8,4.4,3,992.52,-27.1,74,0.31,0.0,1023.55,248.5
2019-01-25 08:10,50.6304483333333,-96.9807833333333,3.7,4.5,348,992.58,-27.7,74,0.31,0.0,1023.66,248.5
2019-01-25 08:20,50.6304483333333,-96.9807783333333,3.9,4.4,351,992.60,-27.8,74,0.30,0.0,1023.70,248.5
2019-01-25 08:30,50.630465,-96.9807783333333,3.0,3.4,348,992.70,-28.0,74,0.30,0.0,1023.83,248.5
2019-01-25 08:40,50.630455,-96.9807683333333,2.4,3.2,344,992.73,-28.0,74,0.30,0.0,1023.90,248.5
2019-01-25 08:50,50.6304516666667,-96.9807683333333,1.8,2.2,333,992.74,-28.1,73,0.30,0.0,1023.94,248.5
2019-01-25 09:00,50.63045,-96.98077,2.4,3.2,340,992.84,-28.4,73,0.30,0.0,1024.06,142.0
2019-01-25 09:10,50.63045,-96.98077,3.2,3.9,334,992.88,-28.7,73,0.30,0.0,1024.12,142.0
2019-01-25 09:20,50.6304516666667,-96.9807716666667,3.1,3.7,325,992.92,-28.9,73,0.30,0.0,1024.18,142.0
2019-01-25 09:30,50.630445,-96.9807716666667,3.1,3.6,324,992.95,-28.8,73,0.30,0.0,1024.19,142.0
2019-01-25 09:40,50.6304583333333,-96.9807683333333,2.5,3.1,320,993.06,-28.8,73,0.30,0.0,1024.29,142.0
2019-01-25 09:50,50.6304466666667,-96.980765,3.9,6.5,353,993.18,-29.1,72,0.29,0.0,1024.46,142.0
2019-01-25 10:00,50.6304466666667,-96.9807683333333,7.0,9.0,359,993.41,-29.8,72,0.29,0.0,1024.77,167.4
2019-01-25 10:10,50.63045,-96.980765,7.6,9.6,352,993.55,-30.0,71,0.29,0.0,1024.94,167.4
2019-01-25 10:20,50.6304516666667,-96.980765,5.8,7.7,343,993.67,-30.4,70,0.29,0.0,1025.09,167.4
2019-01-25 10:30,50.63045,-96.9807666666667,5.7,7.2,342,993.81,-30.5,70,0.29,0.0,1025.25,167.4
2019-01-25 10:40,50.6304483333333,-96.9807683333333,5.4,6.7,350,993.90,-30.6,70,0.29,0.0,1025.36,167.4
2019-01-25 10:50,50.63045,-96.9807716666667,4.8,6.2,336,994.00,-30.7,70,0.29,0.0,1025.48,167.4
2019-01-25 11:00,50.6304516666667,-96.98077,4.4,5.8,342,994.01,-30.7,70,0.28,0.0,1025.52,49.4
2019-01-25 11:10,50.63047,-96.9807566666667,3.9,5.1,328,994.08,-30.9,69,0.28,0.0,1025.61,49.4
2019-01-25 11:20,50.6304516666667,-96.98077,4.3,6.1,328,994.13,-31.2,69,0.27,0.0,1025.68,49.4
2019-01-25 11:30,50.6304516666667,-96.9807716666667,3.9,5.9,324,994.21,-31.3,69,0.27,0.0,1025.77,49.4
2019-01-25 11:40,50.63045,-96.98077,4.9,7.5,340,994.25,-31.4,69,0.27,0.0,1025.84,49.4
2019-01-25 11:50,50.63046,-96.9808333333333,5.0,6.8,342,994.38,-31.3,69,0.27,0.0,1026.01,49.4
2019-01-25 12:00,50.6304566666667,-96.9807816666667,5.0,7.0,342,994.51,-31.2,70,0.26,0.0,1026.16,270.0
2019-01-25 12:10,50.6304533333333,-96.980775,5.3,6.9,346,994.64,-31.0,70,0.26,0.0,1026.30,270.0
2019-01-25 12:20,50.6304383333333,-96.980785,5.9,7.5,350,994.81,-30.7,70,0.26,0.0,1026.47,270.0
2019-01-25 12:30,50.6304433333333,-96.9807666666667,5.8,7.0,350,994.94,-30.6,70,0.25,0.0,1026.59,270.0
2019-01-25 12:40,50.6304766666667,-96.9807583333333,3.9,6.2,332,995.06,-30.7,69,0.25,0.0,1026.73,270.0
2019-01-25 12:50,50.6304583333333,-96.9807633333333,4.2,5.7,328,995.16,-31.1,69,0.24,0.0,1026.86,270.0
2019-01-25 13:00,50.6304566666667,-96.9807666666667,4.7,6.4,326,995.15,-31.5,69,0.24,0.0,1026.89,38.0
2019-01-25 13:10,50.6304533333333,-96.98078,5.1,6.9,326,995.25,-31.7,69,0.24,0.0,1027.02,38.0
2019-01-25 13:20,50.63045,-96.98077,4.8,6.2,317,995.47,-31.9,68,0.23,0.0,1027.28,38.0
2019-01-25 13:30,50.6304533333333,-96.98077,4.8,6.3,320,995.45,-32.1,68,0.22,0.0,1027.28,38.0
2019-01-25 13:40,50.6304533333333,-96.98077,4.2,6.1,318,995.59,-32.3,68,0.22,0.0,1027.43,38.0
2019-01-25 13:50,50.6304516666667,-96.9807683333333,3.4,5.2,321,995.70,-32.5,68,0.22,0.0,1027.55,38.0
2019-01-25 14:00,50.6304516666667,-96.9807683333333,2.8,4.3,317,995.80,-32.6,68,0.22,0.0,1027.65,0.0
2019-01-25 14:10,50.6304516666667,-96.9807666666667,2.8,3.8,308,995.90,-32.7,67,0.22,0.0,1027.74,0.0
2019-01-25 14:20,50.6304516666667,-96.9807666666667,2.3,3.5,308,996.08,-32.7,68,0.22,0.0,1027.91,0.0
2019-01-25 14:30,50.63045,-96.9807666666667,2.3,3.0,302,996.16,-32.6,67,0.21,0.0,1027.99,0.0
2019-01-25 14:40,50.6304516666667,-96.9807666666667,2.3,3.4,292,996.30,-32.3,67,0.21,0.0,1028.15,0.0
2019-01-25 14:50,50.630455,-96.98077,3.3,4.8,301,996.36,-32.1,67,0.20,0.0,1028.22,0.0
2019-01-25 15:00,50.63045,-96.9807716666667,3.7,4.5,315,996.42,-31.9,66,0.19,0.0,1028.28,90.0
2019-01-25 15:10,50.6304516666667,-96.9807683333333,3.2,4.5,308,996.49,-31.7,66,0.19,0.0,1028.36,90.0
2019-01-25 15:20,50.63045,-96.98077,3.1,4.2,318,996.58,-31.4,65,0.19,0.0,1028.44,90.0
2019-01-25 15:30,50.6304516666667,-96.98077,3.4,4.9,318,996.62,-31.1,65,0.19,0.0,1028.48,90.0
2019-01-25 15:40,50.6304516666667,-96.9807683333333,2.9,4.5,310,996.74,-30.7,65,0.19,0.0,1028.59,90.0
2019-01-25 15:50,50.63044,-96.98077,3.5,5.9,288,996.79,-30.7,65,0.19,0.0,1028.64,90.0
2019-01-25 16:00,50.6304466666667,-96.9807616666667,4.1,5.3,286,996.91,-30.9,64,0.19,0.0,1028.79,131.7
2019-01-25 16:10,50.6304466666667,-96.98076,3.6,5.6,302,996.92,-30.5,65,0.19,0.0,1028.78,131.7
2019-01-25 16:20,50.6304483333333,-96.9807583333333,3.8,6.1,303,997.06,-30.0,65,0.19,0.0,1028.88,131.7
2019-01-25 16:30,50.63047,-96.9807466666667,4.1,5.3,303,997.16,-29.6,65,0.19,0.0,1028.94,131.7
2019-01-25 16:40,50.6304433333333,-96.9807633333333,5.0,7.1,310,997.18,-29.5,65,0.19,0.0,1028.93,131.7
2019-01-25 16:50,50.6304433333333,-96.9807616666667,4.4,6.5,316,997.22,-29.3,64,0.19,0.0,1028.95,131.7
2019-01-25 17:00,50.630445,-96.9807633333333,4.4,6.8,314,997.34,-29.0,63,0.19,0.0,1029.03,360.0
2019-01-25 17:10,50.6304466666667,-96.9807616666667,5.1,6.9,324,997.43,-28.7,63,0.19,0.0,1029.09,360.0
2019-01-25 17:20,50.6304483333333,-96.98076,4.0,5.6,328,997.46,-28.4,63,0.19,0.0,1029.08,360.0
2019-01-25 17:30,50.63045,-96.9807616666667,3.7,5.3,12,997.41,-28.0,62,0.19,0.0,1028.98,360.0
2019-01-25 17:40,50.63045,-96.9807633333333,4.4,5.1,32,997.37,-28.4,62,0.19,0.0,1028.96,360.0
2019-01-25 17:50,50.6304516666667,-96.9807633333333,4.3,5.1,43,997.38,-28.5,62,0.19,0.0,1028.99,360.0
2019-01-25 18:00,50.6304516666667,-96.9807633333333,4.2,5.4,47,997.28,-28.3,61,0.20,0.0,1028.85,90.0
2019-01-25 18:10,50.630475,-96.9807966666667,4.1,5.1,43,997.22,-28.1,61,0.20,0.0,1028.75,90.0
2019-01-25 18:20,50.630455,-96.9807683333333,4.0,4.8,42,997.17,-27.9,61,0.20,0.0,1028.66,90.0
2019-01-25 18:30,50.6304583333333,-96.980765,3.2,3.8,38,997.15,-27.6,60,0.20,0.0,1028.60,90.0
2019-01-25 18:40,50.6304566666667,-96.980765,2.4,3.5,47,997.06,-27.2,59,0.20,0.0,1028.47,90.0
2019-01-25 18:50,50.630455,-96.9807666666667,1.2,2.5,78,997.14,-25.4,56,0.19,0.0,1028.42,90.0
2019-01-25 19:00,50.630455,-96.9807666666667,2.2,3.1,83,997.12,-24.9,54,0.19,0.0,1028.35,311.7
2019-01-25 19:10,50.630455,-96.9807666666667,2.8,3.8,83,997.08,-24.6,52,0.19,0.0,1028.27,311.7
2019-01-25 19:20,50.630455,-96.980765,3.0,3.9,83,996.99,-24.6,52,0.19,0.0,1028.14,311.7
2019-01-25 19:30,50.6304633333333,-96.9807633333333,2.6,4.4,85,996.98,-24.5,52,0.20,0.0,1028.15,311.7
2019-01-25 19:40,50.6304583333333,-96.9807666666667,2.2,3.4,95,996.86,-23.4,51,0.20,0.0,1027.96,311.7
2019-01-25 19:50,50.6304583333333,-96.9807683333333,2.3,3.3,96,996.75,-23.4,51,0.20,0.0,1027.84,311.7
2019-01-25 20:00,50.630455,-96.98077,3.2,4.7,106,996.60,-23.8,52,0.21,0.0,1027.70,360.0
2019-01-25 20:10,50.630455,-96.9807716666667,4.4,5.5,111,996.45,-25.5,56,0.21,0.0,1027.64,360.0
2019-01-25 20:20,50.630455,-96.9807733333333,5.9,7.2,114,996.40,-26.1,58,0.22,0.0,1027.60,360.0
2019-01-25 20:30,50.630455,-96.9807716666667,5.5,6.7,120,996.31,-26.3,59,0.22,0.0,1027.51,360.0
2019-01-25 20:40,50.630455,-96.9807716666667,4.8,5.8,126,996.27,-26.5,59,0.22,0.0,1027.36,360.0
2019-01-25 20:50,50.630455,-96.9807716666667,5.6,7.0,137,996.14,-27.0,60,0.22,0.0,1027.23,360.0
2019-01-25 21:00,50.6304566666667,-96.9807716666667,7.8,8.9,142,996.00,-27.5,60,0.22,0.0,1027.10,270.0
2019-01-25 21:10,50.6304566666667,-96.9807716666667,7.9,9.3,145,995.87,-27.6,61,0.22,0.0,1026.97,270.0
2019-01-25 21:20,50.6304333333333,-96.9807666666667,7.9,9.1,149,995.83,-27.7,61,0.22,0.0,1026.92,270.0
2019-01-25 21:30,50.6304483333333,-96.9807616666667,7.7,8.7,148,995.83,-27.7,62,0.22,0.0,1026.85,270.0
2019-01-25 21:40,50.6304516666667,-96.9807666666667,7.2,9.0,149,995.67,-27.8,62,0.22,0.0,1026.70,270.0
2019-01-25 21:50,50.6304633333333,-96.98077,8.2,10.2,154,995.64,-27.8,63,0.22,0.0,1026.70,270.0
2019-01-25 22:00,50.630455,-96.9807666666667,8.5,9.9,152,995.58,-27.8,63,0.23,0.0,1026.74,0.0
2019-01-25 22:10,50.630455,-96.9807683333333,8.2,9.7,146,995.42,-27.9,64,0.23,0.0,1026.61,0.0
2019-01-25 22:20,50.630455,-96.9807683333333,8.0,9.5,153,995.34,-28.1,65,0.23,0.0,1026.56,0.0
2019-01-25 22:30,50.6304566666667,-96.9807666666667,7.1,8.3,160,995.28,-28.0,65,0.24,0.0,1026.51,0.0
2019-01-25 22:40,50.6304566666667,-96.9807666666667,7.0,7.8,161,995.22,-28.1,66,0.24,0.0,1026.49,0.0
2019-01-25 22:50,50.6304566666667,-96.9807666666667,6.6,7.8,161,995.19,-28.2,67,0.24,0.0,1026.49,0.0
2019-01-25 23:00,50.6304566666667,-96.9807666666667,6.4,7.4,167,995.06,-28.2,68,0.24,0.0,1026.37,0.0
2019-01-25 23:10,50.6304566666667,-96.9807683333333,5.2,6.1,183,995.01,-28.1,68,0.24,0.0,1026.31,0.0
2019-01-25 23:20,50.6304516666667,-96.9807733333333,5.2,6.3,190,994.91,-27.9,67,0.24,0.0,1026.20,0.0
2019-01-25 23:30,50.630445,-96.98076,6.6,8.3,187,994.77,-27.8,66,0.25,0.0,1026.05,0.0
2019-01-25 23:40,50.6304483333333,-96.9807666666667,6.1,7.7,187,994.78,-27.9,66,0.25,0.0,1026.07,0.0
2019-01-25 23:50,50.63045,-96.980765,7.0,9.1,185,994.63,-28.0,67,0.25,0.0,1025.92,0.0
